Tracking 35274 objects as of 10-Sep-2026
HD Live streaming from Space Station
objects crossing your sky now

PSYCHE

Track PSYCHE now!
10-day predictions


NORAD ID: 58049
Int'l Code: 2023-157A
Launch date: October 13, 2023
Source: United States (US)
Launch site: AIR FORCE EASTERN TEST RANGE (AFETR)
Your satellite tracking list
Your tracking list is empty




NASA's NSSDC Master Catalog

Two Line Element Set (TLE):
1 58049U 23157A   23286.60289039  .00001209 -37902-5  00000-0 0  9991
2 58049  30.0000  47.5426 0467200 123.5100 359.9800 15.29658471    02
Source of the keplerian elements: AFSPC